Starlink 6298

operational
NORAD ID: 56391 Int'l Des: 2023-061 Owner: SPXS Country: US Constellation: starlink
LEOCIRCULAR

About Starlink 6298

Description loading...

Live Position

Loading 3D Globe...

Upcoming Passes

Altitude History

Altitude vs Time

uPlot chart will show altitude changes over time

Two-Line Element Set

1 56391U 23061T 25353.48374002 .00000268 00000-0 34901-4 0 9999
2 56391 43.0035 272.9303 0000890 284.2077 75.8666 15.02535432144696
Epoch: Dec 19, 2025 • Age: 14 hours

Current Status

Altitude 558.4 km
Velocity 7.59 km/s
Sub-Earth Point 17.80°N, 169.46°E
Launch Date May 4, 2023
Age 2.6 years
Type internet

Technical Details

Classification Payload
Mass 305.00 kg
Dry Mass 290.00 kg
Total Mass 305.00 kg
Length 0.20 m
Diameter 2.80 m
Span 9.00 m
Shape Box + pan
Manufacturer SPXS
Bus Type Starlink
Phase Status In Orbit
Owner/State SPXS/US

Large Constellations

Loading constellations...